B21HL ZUTF-ZGSZ

Flight info

Callsign B21HL
Flight time N/A
Altitude 39100
Route ATVAX7D ATVAX W234 NIXID B330 KWE W181 DUDIT A599 POU W7 SAREX SAREX4
Aircraft E190/M-SDE1E2E3FGHIJ3J4J7P2RWXY/LB1D1G1

Departure

Time N/A
Airport Chengdu Tianfu International Airport (ZUTF)

Arrival

Time 2026-05-06 14:28
Airport Shenzhen Bao'an International Airport (ZGSZ)
Time Latitude Longitude Altitude Speed Heading
2026-05-06 14:07 23.05533 112.70489 27874 ft 458 kts 93°
2026-05-06 14:07 23.05302 112.73886 27374 ft 455 kts 93°
2026-05-06 14:07 23.05070 112.77290 26874 ft 451 kts 93°
2026-05-06 14:08 23.04838 112.80673 26376 ft 447 kts 94°
2026-05-06 14:08 23.04607 112.84041 25884 ft 443 kts 94°
2026-05-06 14:08 23.04380 112.87347 25393 ft 440 kts 94°
2026-05-06 14:08 23.04152 112.90648 24910 ft 437 kts 94°
2026-05-06 14:09 23.03926 112.93903 24430 ft 434 kts 94°
2026-05-06 14:09 23.03700 112.97156 23952 ft 431 kts 94°
2026-05-06 14:09 23.03474 113.00411 23475 ft 429 kts 95°
2026-05-06 14:09 23.03252 113.03582 23010 ft 425 kts 95°
2026-05-06 14:10 23.03051 113.06447 22591 ft 422 kts 95°
2026-05-06 14:10 23.02806 113.09933 22089 ft 419 kts 95°
2026-05-06 14:10 23.02588 113.13029 21637 ft 417 kts 95°
2026-05-06 14:10 23.02365 113.16186 21176 ft 413 kts 95°
2026-05-06 14:11 23.01908 113.19205 20737 ft 407 kts 111°
2026-05-06 14:11 23.00729 113.21967 20309 ft 403 kts 118°
2026-05-06 14:11 22.99445 113.24689 19849 ft 401 kts 119°
2026-05-06 14:11 22.98199 113.27312 19414 ft 397 kts 119°
2026-05-06 14:12 22.96936 113.29963 18976 ft 395 kts 119°
2026-05-06 14:12 22.95673 113.32611 18538 ft 393 kts 119°
2026-05-06 14:12 22.94419 113.35240 18104 ft 391 kts 119°
2026-05-06 14:12 22.93173 113.37849 17677 ft 388 kts 119°
2026-05-06 14:13 22.91929 113.40452 17250 ft 385 kts 119°
2026-05-06 14:13 22.90701 113.43021 16826 ft 382 kts 119°
2026-05-06 14:13 22.89369 113.45480 16395 ft 376 kts 132°
2026-05-06 14:13 22.87349 113.47182 16054 ft 366 kts 158°
2026-05-06 14:14 22.84909 113.47864 15467 ft 358 kts 180°
2026-05-06 14:14 22.82425 113.47827 15060 ft 354 kts 185°
2026-05-06 14:14 22.79993 113.47696 14661 ft 352 kts 186°
2026-05-06 14:14 22.77546 113.47533 14269 ft 350 kts 186°
2026-05-06 14:15 22.75098 113.47359 13879 ft 349 kts 186°
2026-05-06 14:15 22.72683 113.47182 13496 ft 347 kts 186°
2026-05-06 14:15 22.70239 113.47002 13107 ft 346 kts 186°
2026-05-06 14:15 22.67853 113.46825 12725 ft 344 kts 186°
2026-05-06 14:16 22.65480 113.46700 12335 ft 339 kts 178°
2026-05-06 14:16 22.63267 113.47437 11990 ft 336 kts 150°
2026-05-06 14:16 22.61657 113.49218 11851 ft 325 kts 119°
2026-05-06 14:16 22.60963 113.51496 11158 ft 330 kts 96°
2026-05-06 14:17 22.61330 113.53928 10554 ft 325 kts 63°
2026-05-06 14:17 22.62689 113.55759 10154 ft 313 kts 36°
2026-05-06 14:17 22.64672 113.56651 9527 ft 305 kts
2026-05-06 14:17 22.66766 113.56770 9158 ft 295 kts 359°
2026-05-06 14:18 22.68772 113.56845 8814 ft 287 kts 359°
2026-05-06 14:18 22.70760 113.56915 8489 ft 279 kts 359°
2026-05-06 14:18 22.72680 113.56979 8182 ft 271 kts 359°
2026-05-06 14:18 22.74545 113.57038 7935 ft 262 kts 359°
2026-05-06 14:19 22.76349 113.57092 7663 ft 256 kts 359°
2026-05-06 14:19 22.78114 113.57146 7387 ft 250 kts 360°
2026-05-06 14:19 22.79831 113.57198 7119 ft 245 kts 360°
2026-05-06 14:19 22.81510 113.57250 6923 ft 234 kts
2026-05-06 14:20 22.83019 113.57784 6606 ft 230 kts 39°
2026-05-06 14:20 22.83951 113.59145 6337 ft 222 kts 61°
2026-05-06 14:20 22.84682 113.60597 6065 ft 217 kts 62°
2026-05-06 14:20 22.85389 113.62035 5815 ft 212 kts 63°
2026-05-06 14:21 22.86070 113.63435 5579 ft 210 kts 63°
2026-05-06 14:21 22.86752 113.64846 5361 ft 213 kts 63°
2026-05-06 14:21 22.87377 113.66303 5111 ft 213 kts 80°
2026-05-06 14:21 22.87145 113.67825 4899 ft 206 kts 124°
2026-05-06 14:22 22.86077 113.68823 4580 ft 202 kts 149°
2026-05-06 14:22 22.84898 113.69627 4316 ft 197 kts 149°
2026-05-06 14:22 22.83698 113.70297 4036 ft 192 kts 154°
2026-05-06 14:22 22.82513 113.70934 3757 ft 187 kts 154°
2026-05-06 14:23 22.81416 113.71529 3506 ft 184 kts 153°
2026-05-06 14:23 22.80283 113.72147 3254 ft 182 kts 153°
2026-05-06 14:23 22.79158 113.72760 3072 ft 178 kts 153°
2026-05-06 14:23 22.78046 113.73367 2821 ft 180 kts 153°
2026-05-06 14:24 22.76920 113.73982 2554 ft 178 kts 153°
2026-05-06 14:24 22.75872 113.74554 2288 ft 161 kts 152°
2026-05-06 14:24 22.74893 113.75088 2070 ft 156 kts 152°
2026-05-06 14:24 22.73916 113.75623 1866 ft 156 kts 152°
2026-05-06 14:25 22.72947 113.76151 1664 ft 156 kts 152°
2026-05-06 14:25 22.71997 113.76669 1444 ft 142 kts 152°
2026-05-06 14:25 22.71161 113.77125 1243 ft 126 kts 152°
2026-05-06 14:25 22.70411 113.77535 1086 ft 118 kts 151°
2026-05-06 14:26 22.69672 113.77938 955 ft 119 kts 151°
2026-05-06 14:26 22.68923 113.78348 842 ft 120 kts 151°
2026-05-06 14:26 22.68245 113.78713 682 ft 121 kts 152°
2026-05-06 14:26 22.67568 113.79078 565 ft 120 kts 150°
2026-05-06 14:27 22.66742 113.79523 368 ft 122 kts 151°
2026-05-06 14:27 22.65972 113.79946 204 ft 122 kts 149°
2026-05-06 14:27 22.65213 113.80359 56 ft 121 kts 151°
2026-05-06 14:27 22.64508 113.80750 21 ft 101 kts 154°
2026-05-06 14:28 22.64006 113.81024 21 ft 63 kts 154°
2026-05-06 14:28 22.63692 113.81196 21 ft 33 kts 152°
2026-05-06 14:28 22.63519 113.81351 21 ft 32 kts 123°
2026-05-06 14:28 22.63449 113.81476 21 ft 13 kts 92°
2026-05-06 14:29 22.63483 113.81522 21 ft 3 kts 349°
2026-05-06 14:29 22.63513 113.81508 21 ft 5 kts 332°
2026-05-06 14:29 22.63564 113.81480 21 ft 10 kts 336°
2026-05-06 14:29 22.63664 113.81428 21 ft 19 kts 334°
2026-05-06 14:30 22.63795 113.81355 21 ft 21 kts 332°
2026-05-06 14:30 22.63933 113.81280 21 ft 22 kts 333°
2026-05-06 14:30 22.64079 113.81200 21 ft 24 kts 333°
2026-05-06 14:30 22.64212 113.81128 21 ft 13 kts 336°
2026-05-06 14:31 22.64279 113.81167 21 ft 13 kts 64°
2026-05-06 14:31 22.64322 113.81261 21 ft 13 kts 63°
2026-05-06 14:31 22.64384 113.81276 21 ft 12 kts 333°
2026-05-06 14:31 22.64449 113.81245 21 ft 5 kts
2026-05-06 14:32 22.64473 113.81279 21 ft 4 kts 61°
2026-05-06 14:32 22.64484 113.81300 21 ft 0 kts 63°